Find Local Weather

World > North America > United States > New Hampshire

New Castle, New Hampshire Regional Weather

Lat: 43.07N, Lon: 70.72W
Wx Zone: NHZ014
Feedback
Expires:201810151100;;214880
ASUS41 KBOX 151010
RWRBOX

REGIONAL WEATHER ROUNDUP
NATIONAL WEATHER SERVICE BOSTON/NORTON MA
600 AM EDT MON OCT 15 2018

NOTE:  "FAIR" INDICATES FEW OR NO CLOUDS BELOW 12,000 FEET WITH NO 
SIGNIFICANT WEATHER AND/OR OBSTRUCTIONS TO VISIBILITY.


MEZ002-015-021-024-NHZ003-005-008-011-012-014-VTZ005-008-151100-
NORTHERN NEW ENGLAND
  
CITY           SKY/WX    TMP DP  RH WIND       PRES   REMARKS
PORTLAND ME    FAIR      34  34 100 CALM      30.19S                  
BANGOR ME      FAIR      34  33  96 CALM      30.19F                  
CONCORD NH     FOG       32  31  96 CALM      30.17F VSB<1/4          
MANCHESTER NH  FOG       38  38 100 CALM      30.17S VSB 1/2          
NASHUA NH      FOG       36  36 100 CALM      30.19S VSB 1/2          
PORTSMOUTH NH  PTCLDY    38  37  98 CALM      30.16  FOG              
JAFFREY NH     FOG       35  35 100 CALM      30.16F VSB 1/4          
KEENE NH       FOG       34  34 100 CALM      30.17F VSB 1/2          
BURLINGTON VT  FAIR      40  37  89 E5        30.09F                  
MT. WASHINGTON PTCLDY    27  21  80 SW23G30     N/A  WCI  12          
$$


SKY/WX - Weather  TMP - Temperature  DP - Dew Point  RH - Relative Humidity
WIND - Wind Direction/Speed PRES - Barometric Pressure